Location: Pianadetto
(44.4000°N, 10.1000°E)
Time: 20:05:10
(UTC+00:00)

Cosmos 1975 Rocket - Pass Details

Date: 26 May 2022
Orbit: 603 x 634 km, 82.5° (Epoch: 02 July)

Event Time Altitude Azimuth Distance (km) Brightness Sun altitude
Exits shadow 00:39:45 59° 161° (SSE) 728 3.1 -21.8°
Maximum altitude 00:40:30 76° 97° (E) 651 3.1 -21.8°
Drops below altitude 10° 00:44:58 10° 12° (NNE) 2,018 6.8 -21.5°
Sets 00:47:14 0° 11° (N) 2,934 8.0 -21.3°
